Home > Weather > Gurgaon > Past weeks

Flag for India Past Weather in Gurgaon, Haryana, India — Yesterday and Last 2 Weeks

Now
91 °F

Scattered clouds.


Feels Like: 108 °F
Forecast: 81 / 95 °F
Wind: 9 mph from East

Location: New Delhi Palam Airport

Current Time: Aug 25, 2016 at 1:43:54 PM

Latest Report: Aug 25, 2016 at 12:30 PM


Visibility: 4 mi

Pressure: 29.71 "Hg

Humidity: 67%

Dew Point: 79 °F

Location of GurgaonLocation

Past Weather in Gurgaon — Graph

°F

Gurgaon Temperature Yesterday

Maximum temperature yesterday: 86 °F (at 12:00 AM)
Minimum temperature yesterday: 81 °F (at 12:30 PM)
Average temperature yesterday: 84 °F

High & Low Weather Summary for the Past Weeks

 TemperatureHumidityPressure
High95 °F (Aug 15, 3:30 PM)100% (Aug 10, 7:30 PM)29.74 "Hg (Aug 10, 7:30 PM)
Low79 °F (Aug 13, 1:30 AM)53% (Aug 22, 2:00 PM)29.42 "Hg (Aug 16, 6:00 PM)
Average85 °F79%29.58 "Hg
* Reported Aug 10 12:30 PM — Aug 25 12:30 PM, Gurgaon, Weather by CustomWeather, © 2016

Note: Actual official high and low records may vary slightly from our data, if they occured in-between our weather recording intervals... More about our weather records

Advertising

Gurgaon Weather History for the Previous 24 Hours

Scroll right to see more
 ConditionsComfort  
Time TempWeatherWind HumidityBarometerVisibility
12:30 PM
Thu, Aug 25
91 °FScattered clouds.9 mph67%29.71 "Hg4 mi
12:00 PM90 °FScattered clouds.10 mph71%29.71 "Hg3 mi
11:30 AM90 °FScattered clouds.8 mph71%29.74 "Hg2 mi
10:30 AM88 °FScattered clouds.6 mph75%29.74 "Hg2 mi
10:00 AM86 °FFog.7 mph79%29.74 "Hg1 mi
9:30 AM86 °FFog.6 mph79%29.74 "Hg1 mi
9:00 AM86 °FFog.6 mph79%29.74 "Hg1 mi
8:30 AM84 °FFog.6 mph89%29.74 "Hg1 mi
8:00 AM84 °FFog.6 mph89%29.74 "Hg1 mi
7:30 AM82 °FFog.6 mph94%29.74 "Hg1 mi
7:00 AM82 °FFog.6 mph94%29.71 "Hg2 mi
6:30 AM82 °FFog.7 mph94%29.71 "Hg2 mi
6:00 AM81 °FFog.6 mph100%29.68 "Hg2 mi
5:30 AM81 °FFog.6 mph100%29.68 "Hg2 mi
5:00 AM81 °FFog.6 mph100%29.68 "Hg2 mi
4:30 AM82 °FFog.6 mph94%29.68 "Hg2 mi
4:00 AM82 °FFog.6 mph94%29.65 "Hg2 mi
3:30 AM82 °FFog.6 mph89%29.65 "Hg2 mi
3:00 AM82 °FFog.6 mph89%29.65 "Hg2 mi
2:30 AM82 °FFog.5 mph89%29.65 "Hg2 mi
2:00 AM82 °FFog.7 mph89%29.65 "Hg2 mi
1:30 AM82 °FFog.7 mph89%29.65 "Hg2 mi
12:30 AM82 °FFog.5 mph89%29.68 "Hg2 mi
12:00 AM82 °FFog.5 mph89%29.68 "Hg2 mi
11:30 PM
Wed, Aug 24
82 °FFog.5 mph89%29.68 "Hg2 mi
11:00 PM82 °FFog.3 mph89%29.68 "Hg2 mi
10:30 PM84 °FFog.6 mph84%29.68 "Hg2 mi
10:00 PM84 °FFog.5 mph84%29.68 "Hg2 mi
9:30 PM84 °FFog.3 mph84%29.68 "Hg2 mi
9:00 PM84 °FFog.6 mph84%29.65 "Hg2 mi
8:30 PM84 °FFog.6 mph84%29.65 "Hg2 mi
8:00 PM84 °FFog.7 mph84%29.62 "Hg2 mi
7:30 PM84 °FFog.3 mph84%29.62 "Hg2 mi
7:00 PM84 °FFog.5 mph84%29.62 "Hg2 mi
6:30 PM84 °FFog.5 mph84%29.59 "Hg2 mi
6:00 PM84 °FFog.6 mph84%29.59 "Hg2 mi
5:30 PM84 °FFog.6 mph84%29.59 "Hg2 mi
5:00 PM86 °FFog.8 mph79%29.59 "Hg2 mi
4:30 PM86 °FFog.8 mph79%29.59 "Hg2 mi
4:00 PM84 °FFog.9 mph84%29.59 "Hg2 mi
3:30 PM86 °FFog.9 mph84%29.59 "Hg2 mi
3:00 PM84 °FFog.9 mph89%29.59 "Hg1 mi
2:30 PM84 °FFog.6 mph89%29.59 "Hg1 mi
2:00 PM86 °FFog.10 mph84%29.62 "Hg1 mi
1:30 PM84 °FFog.10 mph89%29.62 "Hg1 mi
1:00 PM82 °FFog.9 mph94%29.62 "Hg1 mi
Weather by CustomWeather, © 2016

See weather overviewHow to use our weather pages